Location: Newark
(40.9833°N, 0.0333°W)
Time: 07:41:54
(UTC+00:00)

Vanguard 2 Rocket - Pass Details

Date: 05 November 2020
Orbit: 554 x 3326 km, 32.9° (Epoch: 25 November)

Event Time Altitude Azimuth Distance (km) Brightness Sun altitude
Rises 14:55:44 0° 229° (SW) 4,110 12.0 17.8°
Reaches altitude 10° 14:59:44 10° 215° (SW) 2,698 11.2 17.2°
Maximum altitude 15:04:07 21° 168° (SSE) 1,653 8.8 16.6°
Drops below altitude 10° 15:07:30 10° 119° (ESE) 2,010 8.5 16.1°
Sets 15:09:57 0° 101° (E) 2,785 9.0 15.7°
